Weather History for McMinnville, OR

Change the Weather History Date:

Thursday, September 5, 2013

  Actual Average Record
Temperature  
Mean Temperature 64 °F 64 °F  
Max Temperature 68 °F 80 °F 101 °F (1944)
Min Temperature 59 °F 49 °F 34 °F (1969)
Degree Days  
Heating Degree Days 1 3  
Month to date heating degree days 1 11  
Since 1 July heating degree days 18 96  
Cooling Degree Days 0 2  
Month to date cooling degree days 19 10  
Year to date cooling degree days 356 194  
Growing Degree Days 13 (Base 50)    
Moisture  
Dew Point 61 °F    
Average Humidity 91    
Maximum Humidity 100    
Minimum Humidity 81    
Precipitation  
Precipitation 0.67 in 0.04 in 0.67 in (2013)
Month to date precipitation 0.74 0.20  
Year to date precipitation 11.80 22.53  
Snow  
Snow 0.00 in - - ()
Month to date snowfall 0.0  
Snow Depth 0.00 in    
Sea Level Pressure  
Sea Level Pressure 30.01 in    
Wind  
Wind Speed 5 mph (WSW)    
Max Wind Speed 16 mph    
Max Gust Speed 18 mph    
Visibility 9 miles    
Events Rain , Thunderstorm    
T = Trace of Precipitation, MM = Missing Value Source: NWS Daily Summary

Daily Weather History Graph

Daily Weather History Graph

Search for Another Location

Airport:

Trip Planner

Search our weather history database for the weather conditions in past years. The results will help you decide how hot, cold, wet, or windy it might be!

Date:

Astronomy

Sep. 05, 2013 Rise Set
Actual Time 6:39 AM PDT 7:41 PM PDT
Civil Twilight 6:09 AM PDT 8:11 PM PDT
Nautical Twilight 5:33 AM PDT 8:47 PM PDT
Astronomical Twilight 4:55 AM PDT 9:25 PM PDT
Moon 7:00 AM PDT (9/5) 7:31 PM PDT (9/5)
Length of Visible Light 14h 02m
Length of Day
13h 02m
New Moon, 0% of the Moon is Illuminated
Sep 5
New Moon
Sep 12
First Quarter
Sep 19
Full
Sep 26
Last Quarter
Oct 4
New

Hourly Weather History & Observations

Time (PDT) Temp. Dew Point Humidity Pressure Visibility Wind Dir Wind Speed Gust Speed Precip Events Conditions
12:40 AM 64.4 °F 57.2 °F 77% 30.03 in 10.0 mi Calm Calm - 0.00 in Thunderstorm Overcast
12:53 AM 64.0 °F 57.9 °F 80% 30.02 in 10.0 mi WNW 4.6 mph - 0.00 in   Overcast
1:53 AM 63.0 °F 57.9 °F 84% 30.01 in 10.0 mi WNW 3.5 mph - N/A   Overcast
2:40 AM 62.6 °F 59.0 °F 88% 30.02 in 10.0 mi West 3.5 mph - 0.00 in Rain Light Rain
2:48 AM 62.6 °F 59.0 °F 88% 30.01 in 10.0 mi WNW 3.5 mph - 0.00 in Rain Light Rain
2:53 AM 63.0 °F 59.0 °F 87% 30.01 in 10.0 mi NW 3.5 mph - 0.00 in Rain Light Rain
3:53 AM 61.0 °F 61.0 °F 100% 30.01 in 10.0 mi West 3.5 mph - 0.00 in Rain Light Rain
4:53 AM 61.0 °F 60.1 °F 97% 30.00 in 10.0 mi WNW 4.6 mph - 0.00 in Rain Light Rain
5:53 AM 60.1 °F 60.1 °F 100% 30.01 in 10.0 mi WSW 3.5 mph - 0.00 in   Overcast
6:53 AM 60.1 °F 59.0 °F 96% 30.01 in 10.0 mi West 3.5 mph - 0.01 in   Overcast
7:53 AM 60.1 °F 59.0 °F 96% 30.01 in 10.0 mi West 3.5 mph - N/A   Mostly Cloudy
8:53 AM 61.0 °F 59.0 °F 93% 30.01 in 10.0 mi West 3.5 mph - N/A   Mostly Cloudy
9:53 AM 66.0 °F 62.1 °F 87% 30.01 in 10.0 mi SW 3.5 mph - N/A   Mostly Cloudy
10:53 AM 66.9 °F 61.0 °F 81% 30.01 in 10.0 mi Calm Calm - N/A   Overcast
11:53 AM 66.9 °F 62.1 °F 84% 30.01 in 10.0 mi NE 3.5 mph - N/A   Overcast
12:53 PM 66.9 °F 62.1 °F 84% 30.00 in 10.0 mi Calm Calm - N/A   Overcast
1:53 PM 66.9 °F 62.1 °F 84% 30.00 in 10.0 mi WSW 3.5 mph - 0.00 in Rain Light Rain
2:53 PM 66.9 °F 62.1 °F 84% 30.00 in 10.0 mi NNW 6.9 mph - 0.00 in   Overcast
3:53 PM 64.9 °F 63.0 °F 93% 29.99 in 10.0 mi SW 5.8 mph - 0.01 in Rain Light Rain
4:53 PM 64.9 °F 62.1 °F 90% 29.99 in 10.0 mi SW 5.8 mph - 0.00 in   Overcast
5:13 PM 64.4 °F 62.6 °F 94% 29.98 in 10.0 mi WSW 6.9 mph - 0.00 in Thunderstorm Overcast
5:41 PM 64.4 °F 62.6 °F 94% 30.01 in 3.0 mi SSE 12.7 mph - 0.00 in Rain Heavy Rain
5:49 PM 62.6 °F 60.8 °F 94% 30.01 in 2.0 mi South 11.5 mph - N/A Rain Heavy Rain
5:53 PM 62.1 °F 62.1 °F 100% 30.01 in 2.5 mi South 11.5 mph - N/A Rain Heavy Rain
6:01 PM 62.6 °F 62.6 °F 100% 30.00 in 4.0 mi SW 10.4 mph - N/A Rain Rain
6:16 PM 62.6 °F 60.8 °F 94% 29.99 in 5.0 mi WSW 12.7 mph - N/A Rain Rain
6:53 PM 62.1 °F 61.0 °F 96% 29.99 in 9.0 mi West 10.4 mph - N/A Rain Rain
7:53 PM 62.1 °F 62.1 °F 100% 29.99 in 10.0 mi WSW 5.8 mph - N/A Rain Light Rain
8:53 PM 62.1 °F 61.0 °F 96% 30.01 in 10.0 mi South 4.6 mph - 0.01 in Rain Light Rain
9:32 PM 62.6 °F 60.8 °F 94% 30.03 in 10.0 mi SW 6.9 mph - 0.00 in   Overcast
9:53 PM 61.0 °F 61.0 °F 100% 30.04 in 10.0 mi SW 6.9 mph - 0.01 in Rain Light Rain
10:24 PM 60.8 °F 60.8 °F 100% 30.04 in 7.0 mi SW 8.1 mph - 0.00 in Rain Rain
10:48 PM 60.8 °F 60.8 °F 100% 30.04 in 10.0 mi SW 6.9 mph - N/A Rain Light Rain
10:53 PM 61.0 °F 61.0 °F 100% 30.04 in 10.0 mi SW 8.1 mph - N/A Rain Light Rain
11:53 PM 62.1 °F 61.0 °F 96% 30.04 in 10.0 mi SW 9.2 mph - N/A Rain Light Rain